Terminal Aerodrome Forecast
Issued by NWS

Home | Current Version | Previous Version | Text Only | Print | Product List | Glossary On
Versions: 1 2 3 4 5 6 7 8 9 10 11 12 13 14 15 16 17 18 19 20
000
FTUS44 KTSA 182300
TAFFYV
TAF
KFYV 182337Z 1900/1924 34003KT P6SM OVC008
     FM190600 00000KT 5SM BR OVC007
     FM190900 00000KT 3SM BR OVC004
     FM191600 03004KT 6SM BR OVC007
     FM192100 VRB03KT P6SM OVC010=

USA.gov is the U.S. government's official web portal to all federal, state and local government web resources and services.